[[{"header":{"parameterUnit":"m.s-1","parameterCategory":1,"la1":30.2991,"la2":30.254,"lo1":-89.0895,"lo2":-89.0444,"dy":0.0017,"dx":0.0017,"nx":28,"ny":28,"refTime":"2025-03-21T21:00:00:Z","depth":0,"parameterNumber":2,"parameterNumberName":"U-component_of_WINDS"},"data":[0,0,0,0,0,0,0,0,0,0,0,0,0,0,0,0,0,0,0,0,0,0,0,0,0,0,0,0,0,0,0,0,0,0,0,0,0,0,0,0,0,0,0,0,0,0,0,0,0,0,0,0,0,0,0,0,0,0,-2.3315,-2.3315,0,-2.3303,-2.3303,-2.3303,-2.3212,-2.321,-2.3207,-2.3205,-2.3196,-2.3197,-2.3199,0,0,0,0,0,0,0,0,0,0,0,0,0,-2.326,-2.3261,-2.3315,-2.3315,-2.3314,-2.3304,-2.3303,-2.3303,-2.3212,-2.321,-2.3207,-2.3204,-2.3195,-2.3197,-2.3199,0,0,0,0,0,0,0,0,0,0,0,0,0,-2.327,-2.3262,-2.3315,-2.3268,-2.3263,-2.3304,-2.3303,-2.3303,-2.3213,-2.321,-2.3206,-2.3203,-2.3194,-2.3197,-2.32,-2.3285,0,0,-2.3208,-2.3209,0,0,0,0,0,0,0,0,-2.3269,-2.3272,-2.3275,-2.3271,-2.3266,-2.3256,-2.328,-2.3297,-2.3214,-2.3232,-2.3205,-2.3201,-2.3218,-2.3219,-2.3224,-2.3284,-2.3284,-2.3208,-2.321,-2.3211,-2.3212,0,0,0,0,0,0,0,-2.3269,-2.3272,-2.331,-2.3275,-2.327,-2.3248,-2.3246,-2.3283,-2.3245,-2.323,-2.3224,-2.3223,-2.3215,-2.3222,-2.3224,-2.3284,-2.3208,-2.3211,-2.3213,-2.3214,-2.3415,-2.3418,0,0,0,0,0,0,-2.3274,-2.3272,-2.3311,-2.331,-2.3259,-2.3252,-2.3249,-2.3263,-2.3244,-2.3238,-2.3226,-2.3219,-2.3219,-2.322,-2.3223,-2.3323,-2.3211,-2.3214,-2.3215,-2.3411,-2.3416,-2.342,0,0,0,0,0,0,-2.3273,-2.3278,-2.3311,-2.3289,-2.3291,-2.3256,-2.3272,-2.3264,-2.327,-2.3241,-2.3234,-2.324,-2.3216,-2.3219,-2.327,-2.3321,-2.3215,-2.3218,-2.3407,-2.3412,-2.3418,-2.3523,0,0,0,0,0,0,-2.3272,-2.3279,-2.331,-2.329,-2.3293,-2.3359,-2.3275,-2.3266,-2.3275,-2.3266,-2.3252,-2.3246,-2.3214,-2.3267,-2.3273,-2.3323,-2.322,-2.3402,-2.3409,-2.3416,-2.3515,-2.3532,-2.3546,0,0,0,0,0,-2.327,-2.334,-2.3312,-2.3317,-2.3331,-2.3362,-2.3363,-2.3324,-2.328,-2.3312,-2.3293,-2.3247,-2.3314,-2.3273,-2.3279,-2.3331,-2.3399,-2.3407,-2.3415,-2.3508,-2.3528,-2.3545,0,0,0,0,0,0,-2.3367,-2.3337,-2.3305,-2.337,-2.3369,-2.3346,-2.3385,-2.3346,-2.3358,-2.3349,-2.33,-2.3298,-2.3357,-2.3348,-2.3303,-2.3413,-2.3349,-2.3359,-2.3417,-2.3436,-2.3451,-2.3453,-2.3222,0,0,0,0,0,-2.3396,-2.3422,-2.3394,-2.3455,-2.3456,-2.3421,-2.3432,-2.3402,-2.3399,-2.3399,-2.3383,-2.3383,-2.3404,-2.3419,-2.3437,-2.3512,-2.3509,-2.3551,-2.3567,-2.3579,-2.359,-2.3631,-2.365,-2.3447,-2.3447,-2.3447,0,0,-2.3456,-2.3442,-2.3462,-2.3474,-2.3469,-2.3499,-2.3421,-2.3455,-2.3477,-2.3404,-2.3452,-2.3441,-2.3437,-2.3502,-2.3529,-2.3497,-2.3645,-2.359,-2.36,-2.3604,-2.3642,-2.3661,-2.3678,-2.3452,-2.3451,-2.345,0,0,-2.3581,-2.3572,-2.3623,-2.362,-2.3614,-2.3591,-2.3603,-2.3586,-2.3576,-2.3623,-2.3569,-2.3595,-2.3632,-2.3632,-2.3637,-2.3763,-2.3722,-2.377,-2.3852,-2.3893,-2.3909,-2.3923,-2.3971,-2.3988,-2.378,-2.378,-2.378,0,-2.3656,-2.3698,-2.3654,-2.3692,-2.37,-2.3634,-2.3686,-2.3685,-2.3686,-2.3693,-2.3656,-2.3702,-2.3695,-2.376,-2.3791,-2.3796,-2.381,-2.3773,-2.391,-2.3924,-2.3936,-2.3981,-2.3999,-2.3786,-2.3785,-2.3785,-2.3784,0,-2.3793,-2.3823,-2.3864,-2.3867,-2.3879,-2.3924,-2.3887,-2.3904,-2.3873,-2.3854,-2.3904,-2.3893,-2.3909,-2.3921,-2.3891,-2.3983,-2.3963,-2.3918,-2.3853,-2.3963,-2.4004,-2.402,-2.3795,-2.3792,-2.3791,-2.3789,0,0,-2.3979,-2.3957,-2.3973,-2.3975,-2.3964,-2.3986,-2.4029,-2.4043,-2.4061,-2.4063,-2.4099,-2.4132,-2.4091,-2.4097,-2.4066,-2.4102,-2.4206,-2.4054,-2.4053,-2.4085,-2.4309,-2.4345,-2.4365,-2.4178,-2.4181,-2.4183,-2.4311,0,-2.4101,-2.4173,-2.4134,-2.4211,-2.4239,-2.4178,-2.4215,-2.4213,-2.4196,-2.4219,-2.42,-2.4225,-2.4168,-2.4172,-2.4204,-2.4187,-2.4251,-2.4177,-2.4213,-2.4215,-2.4218,-2.4386,-2.4423,-2.4544,-2.4326,-2.4329,-2.4331,0,-2.4254,-2.4264,-2.4344,-2.4329,-2.4339,-2.4374,-2.4385,-2.4406,-2.4403,-2.4388,-2.4396,-2.4357,-2.4398,-2.4332,-2.439,-2.4341,-2.4353,-2.4346,-2.435,-2.4354,-2.4281,-2.4397,-2.4581,-2.4601,-2.4355,-2.4353,-2.4352,0,-2.4385,-2.4418,-2.4471,-2.4473,-2.4457,-2.4483,-2.4477,-2.447,-2.4483,-2.4492,-2.45,-2.4515,-2.4523,-2.4536,-2.4503,-2.4457,-2.4566,-2.4496,-2.4557,-2.4558,-2.4585,-2.4584,-2.4776,-2.4589,-2.4588,-2.4588,-2.4588,0,-2.4527,-2.4579,-2.453,-2.4563,-2.4619,-2.4575,-2.4633,-2.462,-2.4615,-2.4645,-2.4592,-2.4622,-2.4574,-2.46,-2.4573,-2.4627,-2.463,-2.4621,-2.4614,-2.4628,-2.4629,-2.4637,-2.4629,-2.4593,-2.4592,-2.4591,-2.459,0,-2.4685,-2.4653,-2.4707,-2.4687,-2.4684,-2.4727,-2.471,-2.474,-2.4719,-2.4758,-2.4765,-2.4733,-2.476,-2.4727,-2.4751,-2.4734,-2.4807,-2.4786,-2.4809,-2.4804,-2.4867,-2.4863,-2.5073,-2.5099,-2.4893,-2.4895,-2.4896,0,-2.4779,-2.4817,-2.4802,-2.4819,-2.4816,-2.4843,-2.4855,-2.4813,-2.4827,-2.4828,-2.4858,-2.4881,-2.4897,-2.4943,-2.4923,-2.4941,-2.4922,-2.4994,-2.4924,-2.4937,-2.4926,-2.4925,-2.493,-2.5009,-2.5012,-2.5014,-2.5015,0,-2.495,-2.4933,-2.4952,-2.4967,-2.4983,-2.4992,-2.4997,-2.5014,-2.497,-2.4989,-2.5016,-2.5029,-2.5053,-2.5077,-2.509,-2.5085,-2.5045,-2.5037,-2.5053,-2.5068,-2.5081,-2.5077,-2.4851,-2.5033,-2.5031,-2.503,-2.5029,-2.5028,-2.508,-2.5113,-2.5108,-2.5131,-2.5131,-2.5137,-2.5165,-2.5149,-2.517,-2.5187,-2.516,-2.5195,-2.5192,-2.5205,-2.5205,-2.5232,-2.5201,-2.5223,-2.5229,-2.5236,-2.5247,-2.5074,-2.5234,-2.5234,-2.5233,-2.5233,-2.5232,0,-2.5251,-2.5245,-2.5267,-2.5277,-2.5296,-2.5254,-2.5258,-2.5277,-2.5308,-2.5309,-2.5326,-2.5358,-2.5381,-2.5362,-2.5382,-2.5407,-2.5389,-2.5414,-2.5413,-2.5413,-2.5272,-2.5258,-2.5429,-2.5429,-2.5429,-2.5429,-2.5429,-2.5428,-2.5342,-2.5396,-2.5378,-2.5431,-2.5424,-2.5458,-2.5464,-2.5471,-2.5471,-2.5509,-2.5528,-2.5516,-2.5509,-2.5528,-2.5548,-2.5542,-2.5552,-2.5585,-2.5573,-2.5442,-2.5423,-2.5404,-2.5391,-2.5587,-2.5587,-2.5712,-2.5713,-2.5714]},{"header":{"parameterUnit":"m.s-1","parameterCategory":1,"la1":30.2991,"la2":30.254,"lo1":-89.0895,"lo2":-89.0444,"dy":0.0017,"dx":0.0017,"nx":28,"ny":28,"refTime":"2025-03-21T21:00:00:Z","depth":0,"parameterNumber":3,"parameterNumberName":"V-component_of_WINDS"},"data":[0,0,0,0,0,0,0,0,0,0,0,0,0,0,0,0,0,0,0,0,0,0,0,0,0,0,0,0,0,0,0,0,0,0,0,0,0,0,0,0,0,0,0,0,0,0,0,0,0,0,0,0,0,0,0,0,0,0,-0.8419,-0.842,0,-0.8478,-0.8479,-0.848,-0.8471,-0.847,-0.8469,-0.8468,-0.8529,-0.8531,-0.8534,0,0,0,0,0,0,0,0,0,0,0,0,0,-0.8299,-0.8301,-0.8419,-0.842,-0.8421,-0.8478,-0.8479,-0.848,-0.8471,-0.847,-0.8469,-0.8468,-0.8528,-0.8531,-0.8534,0,0,0,0,0,0,0,0,0,0,0,0,0,-0.8354,-0.8302,-0.8419,-0.8424,-0.8425,-0.8478,-0.8479,-0.848,-0.8472,-0.847,-0.8469,-0.8467,-0.8527,-0.8531,-0.8535,-0.8588,0,0,-0.8546,-0.8548,0,0,0,0,0,0,0,0,-0.8351,-0.8358,-0.8422,-0.8423,-0.8425,-0.8466,-0.8459,-0.8516,-0.8472,-0.8454,-0.8468,-0.8467,-0.8509,-0.8514,-0.8529,-0.8591,-0.8593,-0.8547,-0.8549,-0.8551,-0.8552,0,0,0,0,0,0,0,-0.8347,-0.8356,-0.8443,-0.8423,-0.8425,-0.8422,-0.8429,-0.847,-0.8489,-0.8455,-0.8455,-0.8462,-0.851,-0.8525,-0.853,-0.8594,-0.8546,-0.855,-0.8552,-0.8554,-0.8702,-0.8704,0,0,0,0,0,0,-0.8342,-0.8353,-0.8441,-0.8445,-0.8383,-0.8426,-0.8433,-0.8454,-0.8489,-0.8492,-0.8463,-0.8461,-0.8519,-0.8526,-0.8532,-0.8597,-0.8551,-0.8554,-0.8556,-0.8701,-0.8703,-0.8704,0,0,0,0,0,0,-0.834,-0.835,-0.8438,-0.8399,-0.841,-0.8429,-0.8454,-0.8456,-0.8472,-0.8495,-0.8498,-0.8475,-0.8518,-0.8527,-0.8574,-0.8599,-0.8556,-0.8559,-0.8699,-0.8701,-0.8704,-0.8726,0,0,0,0,0,0,-0.8336,-0.8349,-0.837,-0.8399,-0.8412,-0.8479,-0.8455,-0.8458,-0.8478,-0.8476,-0.8507,-0.8511,-0.8518,-0.8568,-0.8578,-0.8603,-0.8562,-0.8697,-0.87,-0.8703,-0.8723,-0.8729,-0.8734,0,0,0,0,0,-0.8332,-0.8374,-0.8371,-0.8382,-0.8438,-0.8481,-0.8488,-0.8496,-0.848,-0.8501,-0.8516,-0.851,-0.8594,-0.8573,-0.8584,-0.8611,-0.8695,-0.8699,-0.8703,-0.8721,-0.8728,-0.8734,0,0,0,0,0,0,-0.8347,-0.8378,-0.8375,-0.8428,-0.8452,-0.8479,-0.8506,-0.8503,-0.8532,-0.8529,-0.8537,-0.8544,-0.8592,-0.8606,-0.8582,-0.8664,-0.8643,-0.8649,-0.8653,-0.866,-0.8665,-0.8661,-0.8565,0,0,0,0,0,-0.8357,-0.8389,-0.8414,-0.8458,-0.847,-0.8486,-0.8505,-0.8509,-0.8534,-0.8544,-0.8562,-0.8587,-0.8619,-0.864,-0.8671,-0.8725,-0.8732,-0.8749,-0.8754,-0.8758,-0.8764,-0.8793,-0.8801,-0.8717,-0.8717,-0.8717,0,0,-0.8377,-0.8397,-0.8417,-0.8462,-0.8481,-0.8514,-0.8495,-0.8531,-0.8556,-0.855,-0.8595,-0.8609,-0.8637,-0.8688,-0.8711,-0.8702,-0.8788,-0.8763,-0.8766,-0.877,-0.8798,-0.8806,-0.8813,-0.8719,-0.8719,-0.8718,0,0,-0.843,-0.8449,-0.8488,-0.8507,-0.8536,-0.8546,-0.8556,-0.8584,-0.8593,-0.8639,-0.8635,-0.8664,-0.872,-0.874,-0.8757,-0.8818,-0.8813,-0.8827,-0.8856,-0.8884,-0.8891,-0.8897,-0.8919,-0.8926,-0.8832,-0.8833,-0.8833,0,-0.8452,-0.8502,-0.8508,-0.8545,-0.8564,-0.856,-0.8599,-0.8618,-0.8656,-0.8669,-0.8657,-0.8726,-0.8745,-0.88,-0.8815,-0.8829,-0.884,-0.8824,-0.889,-0.8896,-0.8901,-0.8922,-0.893,-0.8834,-0.8834,-0.8834,-0.8834,0,-0.8526,-0.8561,-0.8589,-0.8625,-0.8648,-0.8686,-0.8698,-0.872,-0.8721,-0.8732,-0.8779,-0.8801,-0.8836,-0.8849,-0.8851,-0.8905,-0.8898,-0.8888,-0.8867,-0.8911,-0.893,-0.8938,-0.8836,-0.8836,-0.8835,-0.8835,0,0,-0.8592,-0.8631,-0.8641,-0.8658,-0.8689,-0.8716,-0.8753,-0.8787,-0.8806,-0.8832,-0.8864,-0.891,-0.8901,-0.8921,-0.8924,-0.895,-0.8996,-0.8936,-0.8937,-0.8947,-0.9057,-0.9064,-0.9074,-0.8993,-0.8995,-0.8996,-0.9054,0,-0.8649,-0.8715,-0.8722,-0.8781,-0.8813,-0.8809,-0.8841,-0.8864,-0.8875,-0.8904,-0.8916,-0.8949,-0.8934,-0.8946,-0.8971,-0.8985,-0.9018,-0.8981,-0.9023,-0.9024,-0.9016,-0.9084,-0.9092,-0.9147,-0.9062,-0.9063,-0.9064,0,-0.8724,-0.8752,-0.8814,-0.8841,-0.8855,-0.8884,-0.8915,-0.8943,-0.8968,-0.8975,-0.8997,-0.8997,-0.9035,-0.9012,-0.9065,-0.904,-0.9057,-0.9066,-0.9069,-0.9073,-0.9047,-0.9091,-0.9164,-0.9172,-0.9077,-0.9076,-0.9075,0,-0.8766,-0.8819,-0.8863,-0.8877,-0.8909,-0.893,-0.8944,-0.8968,-0.8988,-0.9016,-0.9029,-0.906,-0.9078,-0.9102,-0.9111,-0.9094,-0.9164,-0.9141,-0.917,-0.917,-0.9186,-0.9185,-0.9263,-0.9196,-0.9196,-0.9196,-0.9196,0,-0.8829,-0.8867,-0.8882,-0.8909,-0.8952,-0.8959,-0.9001,-0.9014,-0.9036,-0.9065,-0.9064,-0.9091,-0.9101,-0.9131,-0.9138,-0.918,-0.9188,-0.9195,-0.9196,-0.9195,-0.9194,-0.9207,-0.9204,-0.9198,-0.9198,-0.9197,-0.9197,0,-0.8883,-0.8895,-0.8943,-0.8969,-0.8976,-0.9007,-0.9029,-0.9055,-0.9066,-0.9103,-0.9112,-0.9129,-0.9163,-0.9174,-0.9216,-0.9221,-0.9271,-0.9269,-0.9262,-0.9263,-0.9291,-0.9288,-0.9381,-0.9393,-0.9318,-0.9318,-0.9319,0,-0.8923,-0.8952,-0.8981,-0.9001,-0.9016,-0.9048,-0.9068,-0.9076,-0.9097,-0.9128,-0.9151,-0.9185,-0.9212,-0.9267,-0.9283,-0.9315,-0.9314,-0.9344,-0.9319,-0.9317,-0.9315,-0.9313,-0.9316,-0.9349,-0.935,-0.9351,-0.9351,0,-0.8992,-0.8996,-0.9025,-0.9057,-0.9081,-0.9106,-0.913,-0.9147,-0.9158,-0.9182,-0.9217,-0.9238,-0.9281,-0.9315,-0.9347,-0.9361,-0.9358,-0.9359,-0.9367,-0.9367,-0.9362,-0.9365,-0.9276,-0.9357,-0.9356,-0.9356,-0.9356,-0.9355,-0.904,-0.9066,-0.9091,-0.9123,-0.9142,-0.9165,-0.9191,-0.9204,-0.9234,-0.9269,-0.9271,-0.9309,-0.9334,-0.9377,-0.9393,-0.9423,-0.9414,-0.9426,-0.9429,-0.9432,-0.9435,-0.9357,-0.9428,-0.9428,-0.9428,-0.9428,-0.9428,0,-0.9109,-0.9125,-0.9155,-0.9189,-0.9214,-0.9209,-0.9235,-0.9257,-0.929,-0.9313,-0.9341,-0.9381,-0.9414,-0.9432,-0.9464,-0.9485,-0.9484,-0.9493,-0.9492,-0.9495,-0.944,-0.943,-0.9493,-0.9493,-0.9493,-0.9493,-0.9493,-0.9493,-0.9149,-0.9192,-0.9199,-0.9252,-0.9267,-0.9304,-0.9319,-0.934,-0.9358,-0.9403,-0.9431,-0.9442,-0.9463,-0.9497,-0.9527,-0.9531,-0.9543,-0.9553,-0.9557,-0.9506,-0.9499,-0.9493,-0.9483,-0.9556,-0.9556,-0.9609,-0.961,-0.961]}]]